When you browse on this site, cookies collect data to enhance your experience and personalize the content and advertising you see.
Visit our Privacy Policy to learn more. By continuing to use the site, you agree to this use of cookies and data.
  • In Austria
  • List of Countries
  • For 7 days
  • Water Temperature
  • Satellite Maps
  • Weather Map
  • News
  • Weather Widgets
  • user-avatar
    Login

    Hourly Weather Buda (Lenin)

    Today, 26 May, Sunday

    Time Temperature Precipitation Wind Pressure Humidity
    00:00 +13°C° 0 mm 3 mps 742 mmHg 90%
    01:00 +13°C° 0 mm 3 mps 742 mmHg 91%
    02:00 +12°C° 0 mm 3 mps 742 mmHg 93%
    03:00 +12°C° 0 mm 3 mps 742 mmHg 92%
    04:00 +12°C° 0 mm 3 mps 743 mmHg 92%
    05:00 +13°C° 0 mm 2 mps 743 mmHg 92%
    06:00 +13°C° 0 mm 3 mps 743 mmHg 86%
    07:00 +16°C° 0 mm 3 mps 743 mmHg 81%
    08:00 +18°C° 0 mm 3 mps 744 mmHg 75%
    09:00 +19°C° 0 mm 4 mps 744 mmHg 70%
    10:00 +19°C° 0 mm 5 mps 744 mmHg 64%
    11:00 +20°C° 0 mm 5 mps 744 mmHg 59%
    12:00 +20°C° 0 mm 6 mps 744 mmHg 57%
    13:00 +21°C° 0 mm 6 mps 744 mmHg 54%
    14:00 +21°C° 0 mm 6 mps 744 mmHg 51%
    15:00 +20°C° 0 mm 6 mps 744 mmHg 53%
    16:00 +20°C° 0 mm 6 mps 744 mmHg 54%
    17:00 +20°C° 0 mm 6 mps 744 mmHg 56%
    18:00 +17°C° 0 mm 5 mps 744 mmHg 63%
    19:00 +15°C° 0 mm 4 mps 744 mmHg 69%
    20:00 +13°C° 0 mm 3 mps 744 mmHg 76%
    21:00 +13°C° 0 mm 3 mps 745 mmHg 79%
    22:00 +12°C° 0 mm 3 mps 745 mmHg 83%
    23:00 +12°C° 0 mm 2 mps 745 mmHg 87%

    Tomorrow, 27 May, Monday

    Time Temperature Precipitation Wind Pressure Humidity
    00:00 +10°C° 0 mm 2 mps 746 mmHg 89%
    01:00 +10°C° 0 mm 2 mps 746 mmHg 91%
    02:00 +9°C° 0 mm 2 mps 746 mmHg 93%
    03:00 +9°C° 0 mm 2 mps 746 mmHg 93%
    04:00 +9°C° 0 mm 2 mps 746 mmHg 92%
    05:00 +9°C° 0 mm 2 mps 746 mmHg 91%
    06:00 +12°C° 0 mm 3 mps 746 mmHg 84%
    07:00 +14°C° 0 mm 3 mps 747 mmHg 77%
    08:00 +17°C° 0 mm 4 mps 747 mmHg 69%
    09:00 +19°C° 0 mm 4 mps 747 mmHg 65%
    10:00 +20°C° 0 mm 5 mps 747 mmHg 61%
    11:00 +22°C° 0 mm 5 mps 747 mmHg 57%
    12:00 +23°C° 0 mm 5 mps 747 mmHg 55%
    13:00 +25°C° 0 mm 5 mps 746 mmHg 52%
    14:00 +25°C° 0 mm 5 mps 746 mmHg 49%
    15:00 +25°C° 0 mm 4 mps 746 mmHg 52%
    16:00 +25°C° 0 mm 4 mps 746 mmHg 55%
    17:00 +25°C° 0 mm 4 mps 746 mmHg 58%
    18:00 +23°C° 0 mm 4 mps 746 mmHg 65%
    19:00 +21°C° 0 mm 4 mps 746 mmHg 71%
    20:00 +20°C° 0 mm 4 mps 746 mmHg 77%
    21:00 +19°C° 0.1 mm 4 mps 746 mmHg 82%
    22:00 +18°C° 0.1 mm 4 mps 746 mmHg 86%
    23:00 +17°C° 0.1 mm 3 mps 746 mmHg 91%

    Day after tomorrow, 28 May, Tuesday

    Time Temperature Precipitation Wind Pressure Humidity
    00:00 +17°C° 0 mm 3 mps 746 mmHg 92%
    01:00 +17°C° 0 mm 3 mps 746 mmHg 93%
    02:00 +16°C° 0 mm 3 mps 746 mmHg 94%
    03:00 +17°C° 0 mm 3 mps 746 mmHg 94%
    04:00 +17°C° 0 mm 3 mps 746 mmHg 94%
    05:00 +17°C° 0 mm 3 mps 746 mmHg 95%
    06:00 +18°C° 0.1 mm 3 mps 746 mmHg 90%
    07:00 +20°C° 0.1 mm 4 mps 746 mmHg 86%
    08:00 +21°C° 0.1 mm 5 mps 746 mmHg 81%
    09:00 +23°C° 0 mm 6 mps 746 mmHg 72%
    10:00 +26°C° 0 mm 7 mps 746 mmHg 62%
    11:00 +27°C° 0 mm 8 mps 746 mmHg 53%
    12:00 +27°C° 0 mm 8 mps 746 mmHg 52%
    13:00 +27°C° 0 mm 8 mps 746 mmHg 51%
    14:00 +27°C° 0 mm 8 mps 745 mmHg 51%
    15:00 +27°C° 0 mm 8 mps 745 mmHg 53%
    16:00 +27°C° 0 mm 7 mps 745 mmHg 55%
    17:00 +27°C° 0 mm 6 mps 745 mmHg 58%
    18:00 +25°C° 0 mm 5 mps 745 mmHg 63%
    19:00 +23°C° 0 mm 5 mps 745 mmHg 68%
    20:00 +21°C° 0 mm 4 mps 745 mmHg 73%
    21:00 +21°C° 0 mm 4 mps 746 mmHg 76%
    22:00 +20°C° 0 mm 4 mps 746 mmHg 79%
    23:00 +20°C° 0 mm 4 mps 746 mmHg 82%

    29 May, Wednesday

    Time Temperature Precipitation Wind Pressure Humidity
    00:00 +19°C° 0 mm 5 mps 746 mmHg 80%
    01:00 +19°C° 0 mm 5 mps 746 mmHg 79%
    02:00 +19°C° 0 mm 6 mps 746 mmHg 77%
    03:00 +19°C° 0 mm 6 mps 746 mmHg 77%
    04:00 +17°C° 0 mm 6 mps 746 mmHg 76%
    05:00 +17°C° 0 mm 6 mps 746 mmHg 76%
    06:00 +18°C° 0 mm 7 mps 746 mmHg 72%
    07:00 +20°C° 0 mm 7 mps 746 mmHg 68%
    08:00 +21°C° 0 mm 7 mps 746 mmHg 65%
    09:00 +22°C° 0 mm 7 mps 746 mmHg 62%
    10:00 +23°C° 0 mm 7 mps 746 mmHg 60%
    11:00 +24°C° 0 mm 8 mps 746 mmHg 58%
    12:00 +26°C° 0 mm 8 mps 746 mmHg 58%
    13:00 +26°C° 0 mm 8 mps 746 mmHg 58%
    14:00 +26°C° 0 mm 8 mps 746 mmHg 58%
    15:00 +26°C° 0 mm 8 mps 746 mmHg 59%
    16:00 +26°C° 0 mm 7 mps 745 mmHg 61%
    17:00 +26°C° 0 mm 7 mps 745 mmHg 62%
    18:00 +24°C° 0.2 mm 6 mps 745 mmHg 67%
    19:00 +23°C° 0.2 mm 5 mps 745 mmHg 72%
    20:00 +21°C° 0.2 mm 4 mps 746 mmHg 77%
    21:00 +21°C° 1.6 mm 4 mps 746 mmHg 81%
    22:00 +20°C° 1.6 mm 4 mps 746 mmHg 84%
    23:00 +19°C° 1.6 mm 3 mps 746 mmHg 88%

    30 May, Thursday

    Time Temperature Precipitation Wind Pressure Humidity
    00:00 +19°C° 0.2 mm 3 mps 746 mmHg 89%
    01:00 +19°C° 0.2 mm 3 mps 746 mmHg 90%
    02:00 +18°C° 0.2 mm 4 mps 746 mmHg 90%
    03:00 +18°C° 0 mm 4 mps 746 mmHg 91%
    04:00 +18°C° 0 mm 4 mps 746 mmHg 91%
    05:00 +18°C° 0 mm 4 mps 746 mmHg 91%
    06:00 +19°C° 0 mm 4 mps 746 mmHg 87%
    07:00 +20°C° 0 mm 4 mps 746 mmHg 82%
    08:00 +22°C° 0 mm 5 mps 746 mmHg 78%
    09:00 +23°C° 0 mm 5 mps 746 mmHg 73%
    10:00 +26°C° 0 mm 5 mps 745 mmHg 67%
    11:00 +27°C° 0 mm 6 mps 745 mmHg 62%
    12:00 +27°C° 0.9 mm 6 mps 745 mmHg 62%
    13:00 +27°C° 0.9 mm 6 mps 745 mmHg 63%
    14:00 +27°C° 0.9 mm 6 mps 745 mmHg 64%
    15:00 +26°C° 1.1 mm 5 mps 745 mmHg 67%
    16:00 +26°C° 1.1 mm 4 mps 745 mmHg 71%
    17:00 +25°C° 1.1 mm 3 mps 745 mmHg 75%
    18:00 +22°C° 0.2 mm 3 mps 746 mmHg 80%
    19:00 +21°C° 0.2 mm 2 mps 746 mmHg 85%
    20:00 +20°C° 0.2 mm 2 mps 746 mmHg 90%
    21:00 +19°C° 0.2 mm 2 mps 747 mmHg 92%
    22:00 +18°C° 0.2 mm 3 mps 747 mmHg 94%
    23:00 +18°C° 0.2 mm 3 mps 747 mmHg 96%

    31 May, Friday

    Time Temperature Precipitation Wind Pressure Humidity
    00:00 +15°C° 0.1 mm 4 mps 748 mmHg 95%
    01:00 +14°C° 0.1 mm 4 mps 748 mmHg 95%
    02:00 +13°C° 0.1 mm 4 mps 748 mmHg 94%
    03:00 +12°C° 0.8 mm 4 mps 748 mmHg 94%
    04:00 +12°C° 0.8 mm 4 mps 749 mmHg 94%
    05:00 +11°C° 0.8 mm 4 mps 749 mmHg 94%
    06:00 +11°C° 0.1 mm 4 mps 750 mmHg 92%
    07:00 +11°C° 0.1 mm 4 mps 750 mmHg 91%
    08:00 +10°C° 0.1 mm 5 mps 750 mmHg 89%
    09:00 +12°C° 0 mm 5 mps 751 mmHg 85%
    10:00 +13°C° 0 mm 5 mps 751 mmHg 82%
    11:00 +14°C° 0 mm 5 mps 751 mmHg 79%
    12:00 +15°C° 0 mm 5 mps 751 mmHg 74%
    13:00 +16°C° 0 mm 5 mps 752 mmHg 69%
    14:00 +19°C° 0 mm 5 mps 752 mmHg 64%
    15:00 +19°C° 0 mm 5 mps 752 mmHg 64%
    16:00 +19°C° 0 mm 6 mps 752 mmHg 63%
    17:00 +19°C° 0 mm 6 mps 753 mmHg 62%
    18:00 +16°C° 0 mm 5 mps 753 mmHg 67%
    19:00 +15°C° 0 mm 4 mps 753 mmHg 72%
    20:00 +13°C° 0 mm 3 mps 754 mmHg 77%
    21:00 +13°C° 0 mm 3 mps 754 mmHg 77%
    22:00 +12°C° 0 mm 3 mps 754 mmHg 78%
    23:00 +11°C° 0 mm 3 mps 754 mmHg 79%
    Show more